Location: Newark
(40.3500°N, 15.2333°E)
Time: 21:33:24
(UTC+00:00)

NOAA 19 - Visible Passes

Search period start: 21 February 2020 00:00
Search period end: 02 March 2020 00:00
Orbit: 840 x 862 km, 99.2° (Epoch: 21 February)

Date Brightness Start Highest point End Pass type
(mag) Time Alt. Az. Time Alt. Az. Time Alt. Az.
21 Feb 7.6 03:55:19 10° NE 03:59:40 23° E 04:03:59 10° SSE visible
21 Feb 8.0 17:02:22 10° SSW 17:06:45 25° W 17:11:10 10° NW visible
22 Feb 8.0 03:44:07 10° NE 03:47:51 18° E 03:51:35 10° SE visible
23 Feb 8.3 03:33:12 10° ENE 03:36:01 14° E 03:38:51 10° ESE visible
23 Feb 5.2 05:11:41 10° N 05:17:11 74° WNW 05:22:41 10° SSW visible
24 Feb 8.5 03:23:08 10° ENE 03:24:10 10° E 03:25:12 10° E visible
24 Feb 5.3 04:59:58 10° NNE 05:05:31 88° ESE 05:11:03 10° SSW visible
25 Feb 5.6 04:48:19 10° NNE 04:53:49 70° ESE 04:59:19 10° S visible
26 Feb 6.1 04:36:41 10° NNE 04:42:06 55° E 04:47:30 10° S visible
27 Feb 6.6 04:25:07 10° NNE 04:30:22 43° E 04:35:36 10° S visible
27 Feb 8.7 17:35:10 10° WSW 17:37:35 13° W 17:40:00 10° WNW visible
28 Feb 7.1 04:13:38 10° NNE 04:18:36 34° E 04:23:34 10° SSE visible
28 Feb 8.4 17:22:17 10° SW 17:25:44 17° W 17:29:12 10° NW visible
29 Feb 7.5 04:02:14 10° NE 04:06:50 26° E 04:11:25 10° SSE visible
29 Feb 8.2 17:09:47 10° SW 17:13:55 22° W 17:18:04 10° NW visible
01 Mar 7.9 03:50:57 10° NE 03:55:02 21° E 03:59:06 10° SE visible
